Weather Roundup
Issued by NWS Springfield, MO

Current Version | Previous Version | Text Only | Print | Product List | Glossary On
Versions: 1 2 3 4 5 6 7 8 9 10 11 12 13 14 15 16 17 18 19 20 21 22 23 24 25 26 27 28 29 30 31 32 33 34 35 36 37 38 39 40 41 42 43 44 45 46 47 48 49 50
000
NZUS99 KSGF 240807
HRRSGF

HOURLY WEATHER
NATIONAL WEATHER SERVICE SPRINGFIELD MO
200 AM CST MON NOV 24 2014

......SGF CWA......

CITY           SKY/WX    TMP DP  RH WIND       PRES   REMARKS
SPRINGFIELD    LGT RAIN  41  36  82 W14G21    29.55R
JOPLIN         CLOUDY    42  32  67 NW18G31   29.65R
WEST PLAINS    CLOUDY    43  39  86 W21G35    29.44R
ROLLA          RAIN      38  36  92 W23G30    29.39R FOG     WCI  27
OSAGE BEACH    CLOUDY    39  34  81 NW12G22   29.48R WCI  32
BRANSON        CLOUDY    39  36  87 W10G26    29.58R WCI  32

......SURROUNDING SGF CWA......

CITY           SKY/WX    TMP DP  RH WIND       PRES   REMARKS
CHANUTE        MOCLDY    40  33  76 W12       29.66R WCI  33
PARSONS        MOCLDY    40  35  83 W8        29.69R WCI  34
COFFEYVILLE    PTCLDY    41  34  76 W10       29.70R
EMPORIA        PTCLDY    36  29  75 NW12      29.64R WCI  28
GROVE OK       MOCLDY    43  37  81 W7        29.70R
ROGERS AR      CLOUDY    40  36  86 W13       29.64R WCI  32
SILOAM SPRINGS CLOUDY    39  34  81 W10       29.68R WCI  32
HARRISON AR    LGT RAIN  40  37  89 NW18G30   29.57R WCI  31
NEAR YELLVILLE CLOUDY    45  36  70 W17G29    29.54R

......KANSAS AND MISSOURI......

CITY           SKY/WX    TMP DP  RH WIND       PRES   REMARKS
KANSAS CTY INT MOCLDY    39  30  70 NW20G32   29.53R WCI  29
DOWNTOWN KC    LGT RAIN  40  28  62 NW16G28   29.53R WCI  31
COLUMBIA       LGT RAIN  36  34  92 NW21G31   29.40R WCI  25
SEDALIA        CLOUDY    41  36  82 W14       29.47R
ST JOSEPH      MOCLDY    34  23  64 NW23G36   29.53R WCI  22
ST LOUIS       LGT RAIN  48  45  89 NW18G36   29.23R
SPIRIT OF STL  LGT RAIN  46  42  86 W16G25    29.25R
KIRKSVILLE     LGT SNOW  34  32  92 NW15      29.36S FOG     WCI  24
WICHITA        PTCLDY    39  24  55 NW17G25   29.73R WCI  30
TOPEKA         MOCLDY    38  25  59 NW14G25   29.60R WCI  30
OLATHE         CLOUDY    39  29  67 NW16G23   29.53R WCI  30

......TENNESSEE......

CITY           SKY/WX    TMP DP  RH WIND       PRES   REMARKS
MEMPHIS        PTCLDY    61  53  75 SW20G28   29.47R
NASHVILLE      MOCLDY    63  56  78 S20G33    29.49R

......ARKANSAS.......

CITY           SKY/WX    TMP DP  RH WIND       PRES   REMARKS
FAYETTEVILLE   CLOUDY    39  37  92 W9        29.66R WCI  33
FT SMITH       CLOUDY    46  37  71 W14       29.71R
LITTLE ROCK    CLOUDY    54  43  66 W26G35    29.57R

......OKLAHOMA.......

CITY           SKY/WX    TMP DP  RH WIND       PRES   REMARKS
TULSA          MOCLDY    43  37  79 W13       29.74R
PONCA CITY     CLEAR     39  29  67 W9        29.77R WCI  33
MCALESTER      PTCLDY    44  36  73 W6        29.80R
OKLAHOMA CITY  PTCLDY    40  30  67 NW9       29.83R WCI  34

......IOWA............

CITY           SKY/WX    TMP DP  RH WIND       PRES   REMARKS
DES MOINES     CLOUDY    33  26  75 NW24G32   29.38S WCI  20
QUAD CITIES    CLOUDY    41  38  89 W13G23    29.17R

......ILLINOIS........

CITY           SKY/WX    TMP DP  RH WIND       PRES   REMARKS
QUINCY         LGT RAIN  39  36  89 NW22G30   29.27R FOG     WCI  29
CHICAGO        LGT RAIN  49  48  97 W9        29.07R FOG




USA.gov is the U.S. government's official web portal to all federal, state and local government web resources and services.